Date String (YYYY-MM-DD hh:mm:ss) UTC,Instrument flags,Ambient pressure (hPa),Sample flow (lpm),Bypass flow (lpm),Sample temperature (°C),Ambient temperature (°C),ASC tube jacket temperature (°C),LED temperature (°C),Box temperature (°C),Sample RH (%),Span deviation,Mass concentration (μg/m³),Mass concentration (μg/m³),Mass concentration (μg/m³)
DateTimeUTC,F1_M11,P_M11,Q1_M11,Q2_M11,T1_M11,T2_M11,T3_M11,T4_M11,T5_M11,U1_M11,ZSPAN_M11,X2_M11,X0_M11,X1_M11
2021-12-20 17:00:00,,0827.2,4.99,0.00,24.7,23.9,00.0,33.6,26.5,07.1,0000.0,0000.57,0002.39,0000.36
2021-12-20 17:01:00,,0827.3,5.01,0.00,24.7,23.9,00.0,33.6,26.5,07.1,0000.0,0000.58,0002.31,0000.36
2021-12-20 17:02:00,,0827.2,4.99,0.00,24.7,24.0,00.0,33.6,26.5,07.1,0000.0,0000.57,0002.13,0000.36
2021-12-20 17:03:00,,0827.2,5.01,0.00,24.7,24.0,00.0,33.6,26.5,07.1,0000.0,0000.58,0002.17,0000.35
2021-12-20 17:04:00,,0827.2,4.99,0.00,24.7,24.0,00.0,33.6,26.5,07.1,0000.0,0000.58,0002.15,0000.36
2021-12-20 17:05:00,,0827.2,5.00,0.00,24.7,24.0,00.0,33.6,26.5,07.1,0000.0,0000.60,0002.21,0000.36
2021-12-20 17:06:00,,0827.3,5.00,0.00,24.7,24.0,00.0,33.6,26.6,07.1,0000.0,0000.60,0002.22,0000.36
2021-12-20 17:07:00,,0827.2,5.01,0.00,24.7,24.0,00.0,33.7,26.6,07.1,0000.0,0000.59,0001.37,0000.35
2021-12-20 17:08:00,,0827.2,5.00,0.00,24.8,24.1,00.0,33.7,26.6,07.1,0000.0,0000.60,0001.03,0000.36
2021-12-20 17:09:00,,0827.2,4.99,0.00,24.8,24.1,00.0,33.7,26.6,07.1,0000.0,0000.60,0001.03,0000.36
2021-12-20 17:10:00,,0827.2,5.00,0.00,24.8,24.1,00.0,33.7,26.6,07.1,0000.0,0000.56,0000.89,0000.36
2021-12-20 17:11:00,,0827.2,5.01,0.00,24.8,24.1,00.0,33.7,26.6,07.1,0000.0,0000.55,0000.87,0000.36
2021-12-20 17:12:00,,0827.2,4.99,0.00,24.8,24.1,00.0,33.7,26.7,07.1,0000.0,0000.57,0000.92,0000.36
2021-12-20 17:13:00,,0827.2,5.00,0.00,24.9,24.1,00.0,33.7,26.7,07.1,0000.0,0000.56,0000.90,0000.36
2021-12-20 17:14:00,,0827.2,5.00,0.00,24.9,24.1,00.0,33.7,26.7,07.1,0000.0,0000.54,0000.86,0000.36
2021-12-20 17:15:00,,0827.2,4.99,0.00,24.9,24.1,00.0,33.7,26.7,07.1,0000.0,0000.54,0000.85,0000.36
2021-12-20 17:16:00,,0827.2,5.00,0.00,24.9,24.1,00.0,33.8,26.7,07.1,0000.0,0000.52,0000.82,0000.35
2021-12-20 17:17:00,,0827.2,5.00,0.00,24.9,24.1,00.0,33.8,26.7,07.1,0000.0,0000.49,0000.76,0000.34
2021-12-20 17:18:00,,0827.2,5.00,0.00,24.9,24.2,00.0,33.8,26.7,07.2,0000.0,0000.48,0000.75,0000.35
2021-12-20 17:19:00,,0827.2,5.02,0.00,24.9,24.2,00.0,33.8,26.8,07.2,0000.0,0000.47,0000.73,0000.34
2021-12-20 17:20:00,,0827.2,4.99,0.00,25.0,24.2,00.0,33.8,26.7,07.3,0000.0,0000.46,0000.71,0000.34
2021-12-20 17:21:00,,0827.2,5.01,0.00,25.0,24.1,00.0,33.8,26.7,07.3,0000.0,0000.46,0000.70,0000.34
2021-12-20 17:22:00,,0827.1,4.99,0.00,25.0,24.2,00.0,33.8,26.8,07.3,0000.0,0000.44,0000.68,0000.33
2021-12-20 17:23:00,,0827.2,5.01,0.00,25.0,24.1,00.0,33.8,26.8,07.4,0000.0,0000.39,0000.56,0000.32
2021-12-20 17:24:00,,0827.1,5.00,0.00,25.0,24.1,00.0,33.9,26.8,07.4,0000.0,0000.39,0000.58,0000.31
2021-12-20 17:25:00,,0827.2,5.01,0.00,25.0,24.1,00.0,33.9,26.8,07.4,0000.0,0000.42,0000.70,0000.31
2021-12-20 17:26:00,,0827.1,4.98,0.00,25.0,24.1,00.0,33.9,26.8,07.5,0000.0,0000.40,0000.65,0000.31
2021-12-20 17:27:00,,0827.2,5.02,0.00,25.0,24.1,00.0,33.9,26.8,07.5,0000.0,0000.39,0000.63,0000.30
2021-12-20 17:28:00,,0827.1,4.98,0.00,25.0,24.1,00.0,33.9,26.8,07.5,0000.0,0000.39,0000.62,0000.30
2021-12-20 17:29:00,,0827.0,5.02,0.00,25.1,24.1,00.0,33.9,26.9,07.4,0000.0,0000.38,0001.51,0000.30
2021-12-20 17:30:00,,0827.1,4.99,0.00,25.1,24.1,00.0,33.9,26.9,07.4,0000.0,0000.38,0002.04,0000.29
2021-12-20 17:31:00,,0827.2,5.01,0.00,25.1,24.1,00.0,33.9,26.9,07.4,0000.0,0000.41,0002.13,0000.29
2021-12-20 17:32:00,,0827.2,4.99,0.00,25.1,24.1,00.0,33.9,26.9,07.5,0000.0,0000.39,0002.11,0000.28
2021-12-20 17:33:00,,0827.1,4.99,0.00,25.1,24.2,00.0,34.0,26.9,07.5,0000.0,0000.39,0002.11,0000.28
2021-12-20 17:34:00,,0827.1,5.01,0.00,25.1,24.2,00.0,34.0,26.9,07.5,0000.0,0000.40,0002.14,0000.28
2021-12-20 17:35:00,,0827.2,5.01,0.00,25.1,24.1,00.0,34.0,26.9,07.6,0000.0,0000.40,0002.11,0000.29
2021-12-20 17:36:00,,0827.2,4.99,0.00,25.1,24.2,00.0,34.0,26.9,07.5,0000.0,0000.37,0001.95,0000.28
2021-12-20 17:37:00,,0827.2,5.02,0.00,25.1,24.2,00.0,34.0,26.9,07.5,0000.0,0000.37,0001.96,0000.28
2021-12-20 17:38:00,,0827.2,4.99,0.00,25.1,24.2,00.0,34.0,26.9,07.6,0000.0,0000.37,0001.96,0000.28
2021-12-20 17:39:00,,0827.2,4.99,0.00,25.1,24.2,00.0,34.0,26.9,07.6,0000.0,0000.38,0002.07,0000.28
2021-12-20 17:40:00,,0827.2,5.02,0.00,25.2,24.2,00.0,34.0,27.0,07.7,0000.0,0000.38,0001.31,0000.28
2021-12-20 17:41:00,,0827.1,4.99,0.00,25.2,24.3,00.0,34.0,27.0,07.8,0000.0,0000.37,0000.63,0000.27
2021-12-20 17:42:00,,0827.1,5.01,0.00,25.2,24.3,00.0,34.1,27.0,07.8,0000.0,0000.33,0000.54,0000.26
2021-12-20 17:43:00,,0827.2,4.99,0.00,25.2,24.3,00.0,34.1,27.0,07.8,0000.0,0000.32,0000.52,0000.26
2021-12-20 17:44:00,,0827.1,5.00,0.00,25.2,24.3,00.0,34.1,27.0,07.8,0000.0,0000.32,0000.51,0000.26
2021-12-20 17:45:00,,0827.3,5.01,0.00,25.2,24.3,00.0,34.1,27.0,07.8,0000.0,0000.31,0000.78,0000.26
2021-12-20 17:46:00,,0827.2,5.00,0.00,25.2,24.2,00.0,34.1,27.0,07.8,0000.0,0000.31,0001.16,0000.25
2021-12-20 17:47:00,,0827.1,5.00,0.00,25.2,24.3,00.0,34.1,27.0,07.8,0000.0,0000.31,0001.71,0000.24
2021-12-20 17:48:00,,0827.3,5.00,0.00,25.2,24.3,00.0,34.1,27.0,07.7,0000.0,0000.31,0001.89,0000.24
2021-12-20 17:49:00,,0827.3,4.99,0.00,25.2,24.3,00.0,34.1,27.0,07.8,0000.0,0000.33,0002.01,0000.24
2021-12-20 17:50:00,,0827.0,5.02,0.00,25.2,24.3,00.0,34.1,27.1,07.8,0000.0,0000.36,0002.09,0000.24
2021-12-20 17:51:00,,0827.0,4.99,0.00,25.3,24.3,00.0,34.1,27.1,07.7,0000.0,0000.36,0002.07,0000.24
2021-12-20 17:52:00,,0827.0,5.01,0.00,25.3,24.3,00.0,34.1,27.0,07.7,0000.0,0000.36,0002.06,0000.24
2021-12-20 17:53:00,,0827.0,4.99,0.00,25.3,24.3,00.0,34.2,27.0,07.7,0000.0,0000.36,0002.07,0000.24
2021-12-20 17:54:00,,0827.2,5.00,0.00,25.3,24.3,00.0,34.2,27.0,07.7,0000.0,0000.35,0002.05,0000.24
2021-12-20 17:55:00,,0827.1,5.01,0.00,25.3,24.3,00.0,34.2,27.1,07.7,0000.0,0000.35,0002.02,0000.24
2021-12-20 17:56:00,,0826.9,5.00,0.00,25.3,24.3,00.0,34.2,27.1,07.6,0000.0,0000.36,0002.07,0000.24
2021-12-20 17:57:00,,0826.9,5.01,0.00,25.3,24.3,00.0,34.2,27.1,07.6,0000.0,0000.35,0001.56,0000.24
2021-12-20 17:58:00,,0827.0,4.99,0.00,25.3,24.4,00.0,34.2,27.1,07.6,0000.0,0000.36,0001.24,0000.24
2021-12-20 17:59:00,,0826.9,5.00,0.00,25.3,24.4,00.0,34.2,27.1,07.7,0000.0,0000.37,0000.89,0000.24
